NOAA 16 DEB

Satellite information

Favourite Embed

Satellite Type and Status

DEBRISIN ORBIT

Key statistics

Satellite NOAA 16 DEB at a glance.

Uptime

9054

Days in orbit

Revolutions

≈ 14.4

Per day

Orbit

SSO

Sun Synchronous Orbit

Inclination

98.8

Latest

Satellite identification and parameters

Extended collection of information and parameters for NOAA 16 DEB.

Object identification

Identified? True

Debris? True

Object name: NOAA 16 DEB

International designator: 2000-055JY

Object number (NORAD): 41379

Object ID (CCSDS): 41379

Country: UNITED STATES OF AMERICA (US)

Current information (Y/N): Y

RCS size: SMALL

Orbital parameters

Period: 99.849 minutes

Inclination: 98.8255 deg

SMA: 7129.451 km

Apoapsis: 769.483 km

Periapsis: 733.15 km

RAAN: 312.9146 deg

Eccentricy: 0.0025481

Argument of periapsis: 45.1205 deg

Mean anomaly: 315.2047 deg

Mean motion: 14.42177069 rev/day

Mean motion (dot): 0.00005186 rev/day2

B* drag term: 0.0015823 1/REarth

Two-line elements (TLE)

Creation date: July 5, 2025, 10:46 p.m.

Reference frame: TEME

Reference center: EARTH

Epoch: July 5, 2025, 1:48 p.m. UTC

TLE line 0: 0 NOAA 16 DEB

TLE line 1: 1 41379U 00055JY 25186.57563088 .00005186 00000-0 15823-2 0 9999

TLE line 2: 2 41379 98.8255 312.9146 0025481 45.1205 315.2047 14.42177069492330

Live tracking on map

Real-time ground track for satellite NOAA 16 DEB.

In-orbit conjunctions

A list of the most updated potential collisions computed for object NOAA 16 DEB.

Target Orbit TCA Probability of collision Miss distance Type
COSMOS 2251 DEB LEO 2025-03-22 02:18:48 0.0008542867 47.0 (m) DEBRIS
CZ-6A DEB LEO 2025-03-02 19:48:50 0.0001927179 335.0 (m) DEBRIS
CZ-6A DEB LEO 2025-02-08 06:13:20 0.0001184328 863.0 (m) DEBRIS
COSMOS 1624 LEO 2025-01-18 23:41:17 0.0002321023 501.0 (m) PAYLOAD
IRIDIUM 920 LEO 2024-12-25 05:51:26 0.0001396771 562.0 (m) PAYLOAD

Associated space launch

The NOAA K, L and M POES satellites begin the fifth generation of improved environmental monitoring in support of NOAA missions. The instrument payload has significant improvements and additions/deletions. The instrument changes have effected the spacecraft subsystems and data formats.

NOAA 16 DEB was lifted into orbit during the mission ‘Titan II SLV | NOAA 16’, on board a Titan II SLV space rocket.

The launch took place on Sept. 21, 2000, 10:22 a.m. from Space Launch Complex 4W.

For more information about the launch, click the button.

Launch to space Titan II SLV | NOAA 16
Titan II SLV | NOAA 16

Agency: N/A

Status: Launch Successful

Launch date: Sept. 21, 2000, 10:22 a.m. UTC

Rocket: Titan II SLV

Launch pad: Space Launch Complex 4W

Location: Vandenberg SFB, CA, USA

...

Latest news about this satellite

There are no fresh news available about this satellite. Check back as we update our databases every day.


Newsletter sign-up

Weekly statistics, charts and insights to help you stay on top of the space industry.